Total_Precipitation_Accumulation
3.36 3.64 3.47 3.32 3.35 3.32 3.61 3.94 4.00 3.54 3.11 2.83 2.60 2.49 2.44 2.42 2.54 2.34 2.32 2.36 2.12 1.94 1.82 1.74 1.74 1.71 1.81 1.97 2.21 2.50 2.75 2.92 3.09 3.26 3.50 3.81 4.16 4.50
3.22 3.37 3.35 3.27 3.50 3.50 3.62 3.92 4.17 4.07 3.35 3.02 2.87 2.52 2.56 2.16 2.35 2.20 2.17 2.18 1.95 1.81 1.71 1.70 1.70 1.70 1.69 1.69 1.80 1.95 2.15 2.32 2.45 2.56 2.63 2.73 2.92 3.22
2.75 2.83 2.81 3.09 3.30 3.30 3.52 3.70 3.96 4.21 3.69 3.31 3.31 3.03 2.99 2.71 2.48 2.27 2.05 1.98 1.80 1.76 1.63 1.57 1.54 1.56 1.61 1.55 1.53 1.61 1.76 1.89 2.00 2.14 2.34 2.48 2.51 2.62
2.58 2.69 2.53 2.79 2.95 3.06 3.30 3.45 3.72 4.17 3.95 3.57 3.45 3.31 3.21 3.04 2.84 2.62 2.13 1.83 1.80 1.91 1.72 1.58 1.53 1.51 1.53 1.47 1.41 1.38 1.41 1.46 1.54 1.68 1.88 2.10 2.23 2.37
2.42 2.34 2.27 2.50 2.58 2.81 3.02 3.03 3.23 3.66 3.76 3.39 3.19 3.41 3.26 3.07 3.14 2.75 2.45 2.37 1.84 1.83 1.76 1.58 1.52 1.45 1.43 1.43 1.41 1.32 1.29 1.29 1.32 1.44 1.67 1.86 1.99 2.08
2.16 2.07 2.10 2.30 2.31 2.50 2.56 2.77 3.01 3.15 3.37 3.29 3.10 3.20 3.21 3.13 3.35 3.10 2.90 2.72 2.31 1.90 1.92 1.71 1.62 1.55 1.45 1.38 1.37 1.37 1.38 1.37 1.36 1.43 1.51 1.62 1.80 1.92
1.89 1.78 1.72 1.76 1.84 2.02 1.98 2.29 2.63 2.74 2.82 2.95 2.94 3.03 3.24 3.40 3.25 3.24 3.09 2.91 2.68 2.42 2.38 2.00 1.71 1.52 1.48 1.45 1.43 1.45 1.47 1.50 1.51 1.57 1.67 1.73 1.79 1.88
1.84 1.79 1.60 1.52 1.54 1.63 1.67 1.77 2.04 2.19 2.38 2.65 2.73 2.79 3.01 3.31 3.42 3.42 3.32 3.11 2.85 2.62 2.74 2.69 2.31 1.99 1.77 1.50 1.51 1.53 1.58 1.66 1.69 1.76 1.86 1.97 2.11 2.12
1.80 1.75 1.47 1.36 1.48 1.44 1.57 1.61 1.70 1.80 1.93 2.21 2.32 2.34 2.62 2.98 3.37 3.38 3.42 3.21 2.95 2.90 3.01 3.01 3.09 2.81 2.22 1.85 1.78 1.57 1.62 1.73 1.77 1.82 1.90 1.94 2.11 2.26
1.71 1.76 1.75 1.70 1.62 1.67 1.68 1.58 1.47 1.51 1.58 1.55 1.65 1.91 2.14 2.45 2.88 3.02 3.29 3.44 3.26 3.16 3.23 3.27 3.31 3.51 2.99 2.41 2.24 1.92 1.82 1.85 1.88 1.88 1.91 1.98 2.05 2.14
1.79 1.82 1.79 1.72 1.72 1.66 1.62 1.59 1.46 1.40 1.40 1.43 1.45 1.62 1.86 2.03 2.37 2.72 2.99 3.22 3.27 3.36 3.45 3.51 3.41 3.57 3.81 3.33 2.64 2.29 2.02 1.89 1.90 1.96 2.01 2.08 2.14 2.15
1.88 1.85 1.74 1.64 1.71 1.60 1.45 1.50 1.48 1.51 1.57 1.53 1.55 1.61 1.66 1.83 2.17 2.43 2.71 3.03 3.06 3.12 2.95 2.97 3.00 3.19 3.63 3.80 3.36 2.68 2.20 2.04 1.93 1.88 1.90 1.98 2.12 1.95
1.87 1.89 1.84 1.75 1.47 1.38 1.35 1.37 1.46 1.56 1.64 1.67 1.67 1.73 1.85 1.91 1.97 2.15 2.44 2.72 2.81 2.60 2.40 2.60 2.80 2.94 3.05 3.22 3.35 3.19 2.72 2.39 2.18 1.99 1.93 1.89 1.93 1.86
2.09 2.08 2.03 1.84 1.54 1.41 1.32 1.39 1.51 1.47 1.47 1.60 1.60 1.59 1.69 1.80 1.92 2.11 2.30 2.43 2.51 2.51 2.53 2.72 2.84 2.85 2.98 3.00 3.03 3.07 3.01 2.81 2.61 2.45 2.36 2.35 2.13 2.04
2.29 2.31 2.19 1.95 1.68 1.46 1.40 1.40 1.40 1.34 1.36 1.45 1.43 1.42 1.51 1.62 1.74 1.95 2.17 2.38 2.44 2.36 2.39 2.58 2.73 2.75 2.88 2.91 2.79 2.70 2.80 2.88 2.83 2.77 2.79 2.74 2.56 2.37
2.44 2.36 2.26 2.05 1.78 1.61 1.54 1.44 1.34 1.40 1.44 1.42 1.46 1.50 1.61 1.74 1.85 1.93 2.11 2.31 2.48 2.41 2.35 2.39 2.52 2.70 2.68 2.52 2.44 2.26 2.26 2.38 2.52 2.68 2.87 3.04 3.03 2.91
2.57 2.39 2.28 2.08 1.89 1.78 1.70 1.61 1.58 1.59 1.54 1.48 1.54 1.57 1.61 1.70 1.79 1.83 1.97 2.07 2.12 2.14 2.24 2.36 2.55 2.68 2.68 2.58 2.43 2.16 2.09 2.03 2.10 2.42 2.76 2.95 2.92 2.76
2.07 2.00 2.04 1.97 1.88 1.80 1.74 1.67 1.65 1.59 1.56 1.56 1.58 1.56 1.53 1.56 1.66 1.78 1.90 1.96 1.95 1.94 2.03 2.14 2.45 2.70 2.74 2.54 2.13 1.99 1.96 1.93 1.98 2.24 2.44 2.50 2.42 2.29
1.75 1.78 1.75 1.72 1.69 1.68 1.67 1.63 1.61 1.58 1.63 1.68 1.66 1.70 1.70 1.67 1.66 1.79 1.94 2.04 2.02 2.02 2.11 2.25 2.42 2.57 2.52 2.27 2.01 1.77 1.82 1.87 2.05 2.21 2.27 2.21 2.05 1.88
1.60 1.66 1.67 1.67 1.67 1.70 1.72 1.68 1.69 1.70 1.74 1.79 1.82 1.84 1.89 1.89 1.89 1.90 1.97 2.05 2.04 2.07 2.16 2.28 2.29 2.31 2.31 2.22 2.11 1.91 1.70 1.77 1.86 1.96 2.03 2.06 1.93 1.75
1.71 1.77 1.79 1.79 1.81 1.86 1.85 1.81 1.82 1.78 1.75 1.81 1.83 1.85 1.86 1.90 1.99 2.01 2.08 2.17 2.12 2.07 2.03 2.04 2.13 2.29 2.43 2.67 2.51 2.12 1.90 1.80 1.84 1.89 1.99 2.11 2.08 1.99
1.75 1.79 1.82 1.84 1.88 1.89 1.85 1.82 1.85 1.83 1.81 1.82 1.81 1.80 1.81 1.81 1.84 1.92 1.97 2.01 2.00 1.98 1.95 2.01 2.25 2.48 2.56 2.64 2.47 2.26 2.18 2.10 2.04 1.99 1.91 1.84 1.85 1.83
1.74 1.79 1.79 1.76 1.74 1.72 1.67 1.68 1.78 1.82 1.84 1.85 1.82 1.80 1.81 1.81 1.81 1.90 1.98 2.02 2.04 2.08 2.09 2.14 2.23 2.36 2.44 2.49 2.54 2.46 2.31 2.23 2.23 2.18 2.02 1.78 1.45 1.29